This is the latest recevied weather packets stored in our database for station/object W9ESR. If no packets are shown the sender has not sent any weather packets the latest 1 day(s).
| Time | Temp. | Humidity | Pressure | Rain* | Wind** | Luminosity | Snow |
|---|---|---|---|---|---|---|---|
| 1778022368 | 12.78° C | 38% | - | 0 mm | 3.13 m/s, 341° | - | - |
| 1778022063 | 12.78° C | 38% | - | 0 mm | 1.79 m/s, 279° | - | - |
| 1778021760 | 12.78° C | 38% | - | 0 mm | 3.58 m/s, 313° | - | - |
| 1778021456 | 12.78° C | 37% | - | 0 mm | 3.58 m/s, 7° | - | - |
| 1778021154 | 12.78° C | 38% | - | 0 mm | 4.47 m/s, 278° | - | - |
| 1778020851 | 12.78° C | 38% | - | 0 mm | 4.02 m/s, 347° | - | - |
| 1778020548 | 12.78° C | 39% | - | 0 mm | 2.68 m/s, 357° | - | - |
| 1778020244 | 12.78° C | 39% | - | 0 mm | 2.24 m/s, 340° | - | - |
| 1778019940 | 12.78° C | 40% | - | 0 mm | 2.24 m/s, 266° | - | - |
| 1778019637 | 12.78° C | 38% | - | 0 mm | 3.13 m/s, 337° | - | - |
| 1778019334 | 13.33° C | 39% | - | 0 mm | 1.79 m/s, 262° | - | - |
| 1778019030 | 12.78° C | 39% | - | 0 mm | 2.24 m/s, 359° | - | - |
| 1778018727 | 12.78° C | 39% | - | 0 mm | 4.92 m/s, 337° | - | - |
| 1778018425 | 12.78° C | 38% | - | 0 mm | 3.58 m/s, 359° | - | - |
| 1778018126 | 13.33° C | 39% | - | 0 mm | 4.02 m/s, 270° | - | - |
| 1778017821 | 13.33° C | 38% | - | 0 mm | 3.58 m/s, 350° | - | - |
| 1778017519 | 13.33° C | 39% | - | 0 mm | 1.79 m/s, 347° | - | - |
| 1778017215 | 13.33° C | 38% | - | 0 mm | 5.36 m/s, 344° | - | - |
| 1778016913 | 13.33° C | 38% | - | 0 mm | 2.68 m/s, 323° | - | - |
| 1778016609 | 13.33° C | 38% | - | 0 mm | 4.47 m/s, 340° | - | - |
| 1778016306 | 13.33° C | 38% | - | 0 mm | 3.58 m/s, 328° | - | - |
| 1778016003 | 13.33° C | 38% | - | 0 mm | 5.81 m/s, 357° | - | - |
| 1778015700 | 13.33° C | 38% | - | 0 mm | 3.58 m/s, 21° | - | - |
| 1778015396 | 13.33° C | 38% | - | 0 mm | 4.92 m/s, 352° | - | - |
| 1778015093 | 13.33° C | 39% | - | 0 mm | 4.92 m/s, 310° | - | - |
* Rain latest hour (hover to see other rain measurements)
** Current wind speed in m/s (hover to see current wind gust speed)